Regional Weather Roundup
Issued by NWS

Home | Current Version | Previous Version | Graphics & Text | Print | Product List | Glossary On
Versions: 1 2 3 4 5 6 7 8 9 10 11 12 13 14 15 16 17 18 19 20 21 22 23 24 25 26 27 28 29 30 31 32 33 34 35 36 37 38 39 40 41 42 43 44 45 46 47 48 49 50
000
ASUS45 KTFX 170210
RWRMT
MONTANA REGIONAL WEATHER ROUNDUP
NATIONAL WEATHER SERVICE GREAT FALLS MT
700 PM MST SAT DEC 16 2017

NOTE: "FAIR" INDICATES FEW OR NO CLOUDS BELOW 12000 FEET WITH NO
SIGNIFICANT WEATHER AND/OR OBSTRUCTIONS TO VISIBILITY.

MTZ001>007-043-170300-
WEST OF THE DIVIDE

CITY           SKY/WX    TMP DP  RH WIND       PRES   REMARKS
KALISPELL      CLOUDY    25  24  96 S3        30.12S
MISSOULA       FAIR      24  19  81 SW6       30.15S WCI  17
BUTTE          FAIR      11   8  88 CALM      30.04R
MULLAN PASS    CLOUDY    18  13  80 VRB5      30.04R HAZE
ANACONDA         N/A     19  16  86 CALM      30.06S
DEER LODGE       N/A     19  16  86 NW6       30.08F WCI  11
EUREKA           N/A     27  21  80 MISG      30.13R
HAMILTON         N/A     21  18  86 CALM      30.14R
LIBBY            N/A     21  19  93 CALM      30.15S
RONAN            N/A     16  14  93 CALM      30.14S
$$

MTZ008-052>055-170300-
SOUTHWEST MONTANA

CITY           SKY/WX    TMP DP  RH WIND       PRES   REMARKS
BOZEMAN        CLOUDY    25  23  92 CALM      30.06R
DILLON         CLOUDY    25  21  85 S5        30.03R
W YELLOWSTONE  CLOUDY    16  16 100 CALM      29.96R
ENNIS          CLOUDY    18  16  93 SE7       30.06R WCI   8
THREE FORKS      N/A     13   9  84 CALM      30.04R VSB 0
TWIN BRIDGES     N/A     27  16  63 CALM      30.02
$$

MTZ009-010-012-014-046-048-049-054-170300-
EAST SLOPES AND CENTRAL MONTANA

CITY           SKY/WX    TMP DP  RH WIND       PRES   REMARKS
CUT BANK       FAIR      19  11  70 W15       29.96F WCI   5
GREAT FALLS    MOCLDY    28  21  75 S13       30.00F WCI  17
HELENA         FAIR      29  19  66 SW7       30.05R WCI  22
CHOTEAU          N/A     23   9  54 W5        30.01S
RAYNESFORD     MOCLDY    21  19  89 NE3       30.01F
$$

MTZ011-013-016-021-045-047-050-051-170300-
NORTH CENTRAL MONTANA

CITY           SKY/WX    TMP DP  RH WIND       PRES   REMARKS
HAVRE          CLOUDY    31  28  89 S7        30.01F WCI  24
LEWISTOWN      FAIR      23  22  96 CALM      30.02S
N BAR RANCH    CLOUDY    28  19  69 SW3       30.04R
CHINOOK          N/A     30  27  86 S3        30.03F
GEYSER         FAIR      19  17  90 SW8       30.00F WCI   9
STANFORD       FAIR      18  15  89 CALM      30.00S
$$

MTZ017>020-022>027-061-062-170300-
NORTHEAST MONTANA

CITY           SKY/WX    TMP DP  RH WIND       PRES   REMARKS
GLASGOW        CLOUDY    28  19  69 NW3       30.04R
GLENDIVE       FAIR      25  20  81 SW6       30.06R WCI  18
JORDAN           N/A     21  14  74 W7        30.05R WCI  12
SIDNEY         FAIR      27  21  78 W5        30.05R
WOLF POINT     FAIR      19  13  77 SW3       30.06R
MALTA          CLOUDY    25  23  93 W3        30.05S
PLENTYWOOD       N/A     25  16  68 CALM      30.00R
POPLAR           N/A     21  18  86 W5        30.05S
$$

MTZ028>42-056>058-170300-
SOUTHCENTRAL AND SOUTHEAST MONTANA

CITY           SKY/WX    TMP DP  RH WIND       PRES   REMARKS
BAKER          FAIR      27  24  89 SW5       30.04R
BILLINGS       LGT SNOW  29  28  96 NW6       30.05S FOG     WCI  23
LIVINGSTON     CLOUDY    23  22  96 SW7       30.03R WCI  15
MILES CITY     FAIR      25  21  85 W6        30.06R WCI  18
BIG TIMBER     CLOUDY    25  25 100 CALM      30.06S FOG
EKALAKA          N/A     27  21  77 NW1       30.00
FORSYTH          N/A     32  27  80 SW3       30.07R
LAUREL           N/A     28  27  93 NW7       30.07S WCI  21
$$

REGIONAL REPORTS...DAKOTAS

CITY           SKY/WX    TMP DP  RH WIND       PRES   REMARKS
WILLISTON      FAIR      23  19  85 SW8       30.02R WCI  14
MINOT          FAIR      30  21  69 SW10      29.98R WCI  21
DICKINSON      FAIR      23  18  81 W5        30.01R
BEACH          MOCLDY    27  23  86 W5        30.06S
CROSBY         FAIR      27  19  74 W13       29.99R WCI  16
TIOGA          FAIR      21  21 100 W9        30.00S WCI  11
WATFORD CITY   FAIR      27  21  80 SW8       30.02R WCI  18
BISMARCK       FAIR      32  28  85 W5        30.04R
GRAND FORKS    FAIR      15  14  95 S7        30.03R WCI   5
FARGO          FAIR      23  21  92 CALM      30.04S FOG
BUFFALO SD       N/A     30  24  78 NW6       29.97R WCI  24
RAPID CITY     CLOUDY    33  24  69 N9        30.03R WCI  25
$$

REGIONAL REPORTS...WYOMING/IDAHO/WASHINGTON

CITY           SKY/WX    TMP DP  RH WIND       PRES   REMARKS
GILLETTE       LGT SNOW  28  26  92 N5        30.00S FOG
SHERIDAN       LGT SNOW  29  28  96 CALM      30.03R FOG
BUFFALO WY     LGT SNOW  27  22  81 W3        30.00R
CODY           FLURRIES  26  21  81 N7        29.98R WCI  18
YELLOWSTONE LA   N/A     16  13  88 CALM      29.93R
IDAHO FALLS    CLOUDY    23  22  96 SW9       30.04R WCI  13
SALMON         FAIR      19  15  84 SE3       30.12R
BOISE          FAIR      31  24  75 W12       30.13R WCI  22
SPOKANE        CLOUDY    24  23  96 S8        30.23S WCI  15
$$

REGIONAL REPORTS...ALBERTA

CITY           SKY/WX    TMP DP  RH WIND       PRES   REMARKS
EDMONTON       CLEAR     27  12  54 S6        29.77F WCI  20
CALGARY        MOCLDY    25   3  39 S5        29.82F
LETHBRIDGE     CLEAR     19  12  73 S15G22    29.90F WCI   5
MEDICINE HAT   CLEAR     28  25  86 S14       29.95F WCI  17
$$

REGIONAL REPORTS...SASKATCHEWAN

CITY           SKY/WX    TMP DP  RH WIND       PRES   REMARKS
SWIFT CURRENT  CLEAR     25  19  80 W15       29.94S WCI  12
REGINA         PTCLDY    27  19  74 W15       29.92R WCI  15
SASKATOON      MOCLDY    27  21  80 W13       29.88S WCI  16
$$



USA.gov is the U.S. government's official web portal to all federal, state and local government web resources and services.